Regional Weather Roundup
Issued by NWS

Home | Current Version | Previous Version | Text Only | Print | Product List | Glossary Off
Versions: 1 2 3 4 5 6 7 8 9 10 11 12 13 14 15 16 17 18 19 20 21 22 23 24 25 26 27 28 29 30 31 32 33 34 35 36 37 38 39 40 41 42 43 44 45 46 47 48 49 50

000
ASUS45 KTFX 231504
RWRMT
MONTANA HOURLY WEATHER ROUNDUP
NATIONAL WEATHER SERVICE GREAT FALLS MT
904 AM MDT TUE SEP 23 2014

NOTE: "FAIR" INDICATES FEW OR NO CLOUDS BELOW 12000 FEET WITH NO
SIGNIFICANT WEATHER AND/OR OBSTRUCTIONS TO VISIBILITY.

* THESE STATIONS ARE NOT UNDER NWS QUALITY CONTROL. THEY DO NOT
   REPORT WEATHER SUCH AS PRECIPITATION OR FOG.

MTZ001>007-043-231600-
WEST OF THE DIVIDE
CITY           SKY/WX    TMP DP  RH WIND       PRES   REMARKS
KALISPELL      PTSUNNY   54  52  93 NE5       30.03S
MISSOULA       PTSUNNY   57  45  64 CALM      30.09R
BUTTE          SUNNY     43  39  86 CALM      30.18R
MULLAN PASS    PTSUNNY   52  45  77 SE8       30.12S
* ESSEX        N/A       47  45  93 N/A        N/A
* LINCOLN      N/A       36  33  89 NE1        N/A
* POLSON       N/A       58  52  81 N/A        N/A
* RONAN APT    PTSUNNY   63  54  73 N/A        N/A
* SEELEY LAKE  N/A       42  38  86 N2         N/A
* THOMP F APT  CLOUDY    47  46  96 NE2        N/A
$$

MTZ008-052>055-231600-
SOUTHWEST MONTANA
CITY           SKY/WX    TMP DP  RH WIND       PRES   REMARKS
BOZEMAN        SUNNY     52  46  80 CALM      30.13R
DILLON         PTCLDY    54  46  74 S9        30.16S
W YELLOWSTONE  CLOUDY    50  48  93 CALM      30.27R
* THREE FORKS  SUNNY     46  30  54 N/A        N/A
* BOULDER HILL N/A       52  40  64 S8         N/A
* MONIDA PASS  N/A       44  44 100 SE5        N/A
* RAYNOLDS PAS N/A       50  31  48 S10        N/A
* WHITEHALL    N/A       49  46  89 NW5        N/A
* WISE RIVER   N/A       37  36  96 E1G8       N/A
$$

MTZ009>010-012-014-046-048-049-054-231600-
EAST SLOPES AND CENTRAL MONTANA
CITY           SKY/WX    TMP DP  RH WIND       PRES   REMARKS
CUT BANK       PTSUNNY   70  46  42 W17       29.98R
GREAT FALLS    SUNNY     64  46  52 SW14      30.00R
HELENA         PTCLDY    54  48  80 CALM      30.09S
MALMSTROM AFB  PTCLDY    64  48  56 W6        30.01R
* CONRAD       PTCLDY    63  50  63 S8         N/A
* EAST GLACIER N/A       59  44  58 W6G11      N/A
* MONARCH      N/A       51  42  71 S9         N/A
* PENDROY      N/A       65  50  58 NW6        N/A
* ROGERS PASS  N/A       59  40  50 S4G11      N/A
* SAINT MARY   N/A       63  45  52 S7G15      N/A
* SWEET GRASS  N/A       66  44  45 W14G19     N/A
$$

MTZ011-013-016-021-035-040-045-047-050-051-231600-
NORTH CENTRAL MONTANA
CITY           SKY/WX    TMP DP  RH WIND       PRES   REMARKS
HAVRE          PTSUNNY   63  48  58 SW14      29.91R
LEWISTOWN      PTCLDY    61  50  67 SE5       30.02S
* CHESTER      N/A       55  45  69 N/A        N/A
* DENTON       N/A       62  48  60 S6         N/A
* GEYSER       N/A       63  48  58 W7         N/A
* JUDITH GAP   N/A       58  49  72 S4         N/A
* LOMA         N/A       60  48  65 W8         N/A
$$

MTZ017>020-022>027-061-062-231600-
NORTHEAST MONTANA
CITY           SKY/WX    TMP DP  RH WIND       PRES   REMARKS
GLASGOW        SUNNY     59  48  67 CALM      29.87R
GLENDIVE       PTCLDY    61  52  72 CALM      29.89R
JORDAN         SUNNY     61  54  78 W6        29.89R
SIDNEY         SUNNY     55  50  83 CALM      29.88S
WOLF POINT     PTCLDY    55  48  77 W3        29.87R
* BEAVER HILL  N/A       59  51  75 S6         N/A
* CIRCLE       N/A       56  54  93 N/A        N/A
* LINDSAY DVD  N/A       67  52  59 NW9        N/A
* NAVAJO       N/A       63  52  68 W4         N/A
$$

MTZ028>042-056>058-231600-
SOUTHCENTRAL AND SOUTHEAST MONTANA
CITY           SKY/WX    TMP DP  RH WIND       PRES   REMARKS
BAKER          PTCLDY    66  54  65 W6        29.90S
BILLINGS       PTCLDY    61  46  58 SW14      29.99R
LIVINGSTON     SUNNY     64  46  52 SW22G28   30.08S
MILES CITY     PTSUNNY   63  52  68 CALM      29.90R
* LAUREL APT   PTCLDY    61  45  56 SW8        N/A
* ROUNDUP APT  SUNNY     61  48  62 S9         N/A
* ALZADA       N/A       61  56  84 E5         N/A
* HYSHAM       N/A       61  48  62 W9         N/A
* LAME DEER    N/A       60  47  62 W9G15      N/A
* REED POINT   N/A       66  46  49 W7         N/A
* ROSCOE HILL  N/A       64  35  34 S9         N/A
$$

REGIONAL REPORTS...DAKOTAS
CITY           SKY/WX    TMP DP  RH WIND       PRES   REMARKS
WILLISTON      SUNNY     61  52  72 CALM      29.87R
DICKINSON      SUNNY     61  55  81 S12       29.88R
BEACH          N/A       63  55  75 SW6       29.89R
CROSBY         SUNNY     59  54  84 S6        29.87R
TIOGA          SUNNY     61  59  93 SE8       29.91S
WATFORD CITY   SUNNY     57  50  78 SE3       29.85S
BISMARCK       PTSUNNY   66  55  68 S14       29.94R
GRAND FORKS    SUNNY     63  52  68 S14       30.02S
FARGO          SUNNY     63  52  68 SE14      30.05S
BUFFALO SD     PTCLDY    66  55  68 S3        29.86R
RAPID CITY     PTSUNNY   64  57  78 CALM      29.94R
$$

REGIONAL REPORTS...WYOMING/IDAHO/WASHINGTON
CITY           SKY/WX    TMP DP  RH WIND       PRES   REMARKS
GILLETTE       PTCLDY    64  48  56 CALM      30.01R
SHERIDAN       SUNNY     66  46  49 CALM      30.00R
CODY           PTCLDY    66  45  47 W12G18    30.09S
YELLOWSTONE LA PTCLDY    48  46  93 CALM      30.34R
SALMON         PTCLDY    52  48  86 CALM      30.14S
MULLAN PASS    PTSUNNY   52  45  77 SE8       30.12S
SAND POINT     PTCLDY    63  55  75 NE6       29.96F
SPOKANE        PTSUNNY   61  55  81 CALM      29.94R

$$



USA.gov is the U.S. government's official web portal to all federal, state and local government web resources and services.